"Pseudo-MPEC" for N00grmv

Created 2020 Jul 11 9:07:04 UT using Find_Orb

Click here for an explanation of pseudo-MPECs

 
 Astrometry: 
     N00grmv  S2020 06 268Sa2cX.8=I6YMXAstrometrycyL`redacted;8uw,xOF9;jEQ\R9C51
     N00grmv  s2020 06 26n;KVTi%DHR1,)L`A!]MygMl(=7ZSiM_xXmA^7jjmUPP'6q(Ny[;NC51
     N00grmv  S2020 06 26wx?1Qc^SH72;XJ,nSXy*95Uv=.WX5+03%AdhZr6K^+)b7`0jr/N1C51
     N00grmv  s2020 06 26y*-8?OM$_:)ZYqnQ-?il#Q)c;N[KVFJ`.@S'oZ+.u5iT,]_nW(`ZC51
     N00grmv  S2020 06 263DwNr2SNXWi@xBGmSQBE_N\DB9L)s_Mphy\A'oyJ5wl7DIDTfE::C51
     N00grmv  s2020 06 26(87Aeto$!?FTh[qA``r,QUuqd;$0xGt[uC:v`P(eiIK*AX[8g1/QC51
     N00grmv  S2020 06 26%U6XL7R-2OGbkb8djX-n)75;M')86Zrpj/NZ#g/%OTgB1L%]=oyDC51
     N00grmv  s2020 06 26v(63/)`1VrkZ_T_i.1'7e-qHJf!Ib]_OTn2:fCK_h+xBDAQ$RXoqC51
     N00grmv  S2020 06 26efti,u8I3RRgFe[gb,QkXs5$m,6c$!)RE6'7_:i7'jV=W?IclickC51
     N00grmv  s2020 06 26]J;;w*oR8;nD2m49*sTte5duRu:V2K'Uw-y0YXGkK5*V/^*NNHICC51
     N00grmv  S2020 06 276U\a\Rq3pX2here[[k9\\eqAuZY%.-M2hJ*$Yffo?])io;$Pa2w]C51
     N00grmv  s2020 06 27^2x7'_9'hC,GcLp\cyX;*cVuS93LKR$3c4LkVIQWfWNItM)RBg;RC51
     N00grmv  S2020 06 27Dk,]$2c06YCSHIx$LO\9`dZ7E34f(f0MLH,^eptxn(FqKD0a7pKSC51
     N00grmv  s2020 06 27QRP=)(iQ4(p*nR*;Je@nu'+kR8vnDnyIpEQ_P?AF#xoV(0GPNBW3C51
     N00grmv  S2020 06 27hcK1og0e61g@;,;/91?vuECKsf\`.y1L0ZmuF)U1JOL0kh@*S9N_C51
     N00grmv  s2020 06 27JS2j5sRh^XSsL(sU]*g06XS0`JC5cGhOkXC;!S4M[a]sE=`USrb4C51
     N00grmv  S2020 06 27IB1^_2h#8E9`lN)(5f!Z)for;i73R/!UQgmjyMXWf#W%=3Kk=-Z]C51
     N00grmv  s2020 06 27.ng#^$jj3lE3l.2?@C+xUdexplanation;hja_wuC`j0cNhTrUqMC51
     N00grmv  S2020 06 273c5y(/Ch-xR#@B@9#)gC1/w]dwTkd=d5ahC9tY=97Wpq;]:lld0CC51
     N00grmv  s2020 06 27!.6'r6qYXnLRn+o2y`CoW8-r?yd)d-Ge;]GgM+2L^2-leniZK(AwC51

Station data:
(C51) WISE. Measurers A. Mainzer, E. Wright, J. Bauer, T. Grav, J. Dailey, J.
   Masiero, R. Cutri, R. McMillan, R. Walker.

Orbital elements:  N00grmv
   Perihelion 2020 Jun 26.981120 +/- 3.52 TT = 23:32:48 (JD 2459027.481120)
Epoch 2020 Jun 27.0 TT = JDT 2459027.5   Earth MOID: 0.7451   AutoNEOCP
M   0.00421009 +/- 5.2              (J2000 ecliptic)
n   0.22299221 +/- 0.0193           Peri.  277.64292 +/- 0.9
a   2.69324736 +/- 0.0129           Node   328.48372 +/- 4.6
e   0.3988085 +/- 0.0244            Incl.   20.10550 +/- 1.9
P   4.42                   H 17.0   G  0.15   U 10.1  
q 1.61915737 +/- 0.0273    Q 3.76733736 +/- 0.0277
From 10 observations 2020 June 26-27 (42.4 hr); mean residual 1".28
Residuals in arcseconds: 
200626 C51  .92-  1.2-    200626 C51  1.1-  1.4-    200627 C51  1.0+  .14+    
200626 C51  .39+  2.0+    200627 C51  .53+  2.5-    200627 C51  .51-  .58-    
200626 C51  1.3+  .03-    200627 C51  1.6-  3.1+    
200626 C51  .86+  .65+    200627 C51  .08+  .08-    

Ephemerides (geocentric):
Date (UTC) HH   RA              Dec         delta   r     elong  mag " sig PA
---- -- -- --  -------------   -----------  ------ ------ -----  --- ---- ---
2020 07 11 09  13 20 14.502   -42 11 16.23  1.0431 1.6238 104.1 19.7  301  93
2020 07 11 10  13 20 21.486   -42 11 10.76  1.0433 1.6238 104.0 19.7  302  93
2020 07 11 11  13 20 28.473   -42 11 05.28  1.0435 1.6239 104.0 19.7  304  93
2020 07 11 12  13 20 35.464   -42 10 59.79  1.0437 1.6239 104.0 19.7  306  93
2020 07 11 13  13 20 42.456   -42 10 54.31  1.0439 1.6239 104.0 19.7  307  93
2020 07 11 14  13 20 49.452   -42 10 48.82  1.0442 1.6239 104.0 19.7  309  93
2020 07 11 15  13 20 56.451   -42 10 43.32  1.0444 1.6240 104.0 19.7  310  93
2020 07 11 16  13 21 03.452   -42 10 37.82  1.0446 1.6240 104.0 19.7  312  93
2020 07 11 17  13 21 10.456   -42 10 32.32  1.0448 1.6240 104.0 19.7  314  93
2020 07 11 18  13 21 17.463   -42 10 26.82  1.0451 1.6240 103.9 19.7  315  93
2020 07 11 19  13 21 24.473   -42 10 21.31  1.0453 1.6241 103.9 19.7  317  93
2020 07 11 20  13 21 31.486   -42 10 15.80  1.0455 1.6241 103.9 19.7  319  93
2020 07 11 21  13 21 38.501   -42 10 10.29  1.0457 1.6241 103.9 19.7  320  93
2020 07 11 22  13 21 45.520   -42 10 04.77  1.0460 1.6242 103.9 19.7  322  93
2020 07 11 23  13 21 52.541   -42 09 59.25  1.0462 1.6242 103.9 19.7  324  93
2020 07 12 00  13 21 59.565   -42 09 53.73  1.0464 1.6242 103.9 19.7  325  93
2020 07 12 01  13 22 06.592   -42 09 48.20  1.0466 1.6242 103.8 19.7  327  93
2020 07 12 02  13 22 13.621   -42 09 42.67  1.0469 1.6243 103.8 19.7  329  93
2020 07 12 03  13 22 20.653   -42 09 37.13  1.0471 1.6243 103.8 19.7  330  93
2020 07 12 04  13 22 27.689   -42 09 31.59  1.0473 1.6243 103.8 19.7  332  93
2020 07 12 05  13 22 34.726   -42 09 26.05  1.0475 1.6244 103.8 19.7  334  93
2020 07 12 06  13 22 41.767   -42 09 20.51  1.0478 1.6244 103.8 19.7  336  93
2020 07 12 07  13 22 48.811   -42 09 14.96  1.0480 1.6244 103.8 19.7  337  93
2020 07 12 08  13 22 55.857   -42 09 09.40  1.0482 1.6244 103.8 19.7  339  93
2020 07 12 09  13 23 02.906   -42 09 03.85  1.0484 1.6245 103.7 19.7  341  93
2020 07 12 10  13 23 09.958   -42 08 58.29  1.0487 1.6245 103.7 19.7  342  93
2020 07 12 11  13 23 17.012   -42 08 52.73  1.0489 1.6245 103.7 19.7  344  93
2020 07 12 12  13 23 24.070   -42 08 47.16  1.0491 1.6246 103.7 19.7  346  93
2020 07 12 13  13 23 31.130   -42 08 41.59  1.0493 1.6246 103.7 19.7  348  93
2020 07 12 14  13 23 38.193   -42 08 36.01  1.0496 1.6246 103.7 19.7  349  93
2020 07 12 15  13 23 45.258   -42 08 30.43  1.0498 1.6246 103.7 19.7  351  93
2020 07 12 16  13 23 52.327   -42 08 24.85  1.0500 1.6247 103.6 19.7  353  93
2020 07 12 17  13 23 59.398   -42 08 19.27  1.0502 1.6247 103.6 19.7  355  93
2020 07 12 18  13 24 06.472   -42 08 13.68  1.0505 1.6247 103.6 19.7  356  93
2020 07 12 19  13 24 13.548   -42 08 08.09  1.0507 1.6248 103.6 19.7  358  93
2020 07 12 20  13 24 20.628   -42 08 02.49  1.0509 1.6248 103.6 19.7  360  93
2020 07 12 21  13 24 27.710   -42 07 56.89  1.0512 1.6248 103.6 19.7  362  93
2020 07 12 22  13 24 34.795   -42 07 51.28  1.0514 1.6249 103.6 19.7  363  93
2020 07 12 23  13 24 41.882   -42 07 45.67  1.0516 1.6249 103.6 19.7  365  93
2020 07 13 00  13 24 48.972   -42 07 40.06  1.0518 1.6249 103.5 19.7  367  93
2020 07 13 01  13 24 56.065   -42 07 34.45  1.0521 1.6249 103.5 19.7  369  93
2020 07 13 02  13 25 03.161   -42 07 28.83  1.0523 1.6250 103.5 19.7  371  93
2020 07 13 03  13 25 10.260   -42 07 23.20  1.0525 1.6250 103.5 19.7  372  93
2020 07 13 04  13 25 17.361   -42 07 17.58  1.0527 1.6250 103.5 19.7  374  93
2020 07 13 05  13 25 24.465   -42 07 11.94  1.0530 1.6251 103.5 19.7  376  93
2020 07 13 06  13 25 31.571   -42 07 06.31  1.0532 1.6251 103.5 19.7  378  93
2020 07 13 07  13 25 38.681   -42 07 00.67  1.0534 1.6251 103.4 19.7  380  93
2020 07 13 08  13 25 45.793   -42 06 55.02  1.0537 1.6252 103.4 19.7  381  93